Regional Weather Roundup
Issued by NWS

Home | Current Version | Previous Version | Graphics & Text | Print | Product List | Glossary On
Versions: 1 2 3 4 5 6 7 8 9 10 11 12 13 14 15 16 17 18 19 20 21 22 23 24 25 26 27 28 29 30 31 32 33 34 35 36 37 38 39 40 41 42 43 44 45 46 47 48 49 50
000
ASUS43 KMPX 192110
RWRMN
WEATHER ROUNDUP FOR MINNESOTA
NATIONAL WEATHER SERVICE TWIN CITIES/CHANHASSEN MN
400 PM CDT SUN OCT 19 2014


NOTE: "FAIR" INDICATES FEW OR NO CLOUDS BELOW 12,000 FEET WITH NO
SIGNIFICANT WEATHER AND/OR OBSTRUCTIONS TO VISIBILITY. N/A MEANS
CURRENT SKY AND/OR WEATHER CONDITIONS ARE NOT AVAILABLE.

MNZ060>063-068>070-192200-
   Twin Cities Metro

CITY           SKY/WX    TMP DP  RH WIND       PRES   REMARKS
TWIN CITIES    MOSUNNY   67  44  43 SW7G17    29.79F
ST PAUL        SUNNY     66  45  46 SW9       29.79F
CRYSTAL        SUNNY     68  44  42 SW9       29.77F
BLAINE         MOSUNNY   68  46  45 SW12      29.77F
LAKEVILLE      SUNNY     66  45  45 W10G16    29.79F
EDEN PRAIRIE   SUNNY     69  44  40 SW13G20   29.78F
SOUTH ST PAUL  SUNNY     67  43  41 SW10      29.78F
LAKE ELMO      FAIR      64  46  52 W12G20    29.79F
$$
MNZ001>005-007-008-013>017-022>024-027-028-192200-
   Northwest Minnesota

CITY           SKY/WX    TMP DP  RH WIND       PRES   REMARKS
BEMIDJI        SUNNY     61  42  49 NW23G30   29.77R
HALLOCK        SUNNY     64  43  45 NW13G22   29.81R
ROSEAU         SUNNY     63  45  51 NW16      29.78R
WARROAD        SUNNY     61  46  59 NW16      29.77R
THIEF RVR FALL SUNNY     61  43  51 NW18G24   29.81S
CROOKSTON      SUNNY     64  45  48 N20G25    29.83R
FOSSTON        SUNNY     63  43  48 NW20G28   29.82R
DETROIT LAKES  SUNNY     64  43  45 NW17      29.81S
MOORHEAD       SUNNY     70  30  23 NW21G29   29.82R
PARK RAPIDS    SUNNY     64  40  41 W21G29    29.77R
MAHNOMEN       FAIR      63  43  48 NW22G28   29.82R
$$
MNZ006-009>011-018-025>026-192200-
   North Central Minnesota

CITY           SKY/WX    TMP DP  RH WIND       PRES   REMARKS
BAUDETTE       SUNNY     59  43  55 NW15G23   29.75R
FLAG ISLAND    SUNNY     55  43  62 NW18      29.74R
INTL FALLS     CLOUDY    59  42  53 W13G23    29.72R
WASKISH        MOSUNNY   61  45  55 W10G16    29.75R
BIG FORK       SUNNY     63  43  48 W10G16    29.73R
LONGVILLE      SUNNY     64  41  42 NW13      29.74R
GRAND RAPIDS   SUNNY     63  43  48 NW14G22   29.73R
CRANE LAKE     MOSUNNY   59  43  55 NW3       29.71S
ORR            SUNNY     61  39  44 NW12G18   29.68S
COOK           SUNNY     61  43  51 W13       29.70S
WALKER         FAIR      63  41  44 W15G23    29.76R
$$
MNZ012-019>021-037-192200-
   Northeast Minnesota

CITY           SKY/WX    TMP DP  RH WIND       PRES   REMARKS
DULUTH         MOSUNNY   63  42  46 W13       29.70F
ELY            SUNNY     57  41  54 W12G18    29.69S
HIBBING        SUNNY     64  41  42 W10G18    29.70S
EVELETH        SUNNY     59  41  51 W10       29.71S
DULUTH HARBOR  SUNNY     63  46  55 SW13      29.70F
TWO HARBORS    MOSUNNY   64  32  29 W8        29.67F
SILVER BAY     MOSUNNY   61  43  51 SW7       29.67F
GRAND MARAIS     N/A     48  42  80 SW6       29.71F
G MARAIS ARPRT MOSUNNY   46  37  71 S3        29.69F
$$
MNZ029>031-032-039>041-046>048-054>057-064-192200-
   West Central Minnesota

CITY           SKY/WX    TMP DP  RH WIND       PRES   REMARKS
FERGUS FALLS   SUNNY     70  36  28 NW18G26   29.80F
WHEATON        SUNNY     70  39  32 NW17G24   29.83S
MORRIS         SUNNY     72  43  35 NW17      29.80F
ALEXANDRIA     SUNNY     67  42  40 NW20      29.81S
ELBOW LAKE     FAIR      67  42  39 NW21      29.81S
WADENA         SUNNY     64  43  45 NW12G25   29.78S
GLENWOOD       SUNNY     68  43  40 W14       29.81S
APPLETON       SUNNY     73  37  27 NW17      29.82S
BENSON         SUNNY     72  41  33 N16G25    29.81S
ORTONVILLE     SUNNY     72  39  30 NW13G21   29.83S
MADISON        SUNNY     75  39  27 NW13G20   29.83S
WILLMAR          N/A     72  39  30 W15       29.81F
$$
MNZ033>034-036-042>043-049>051-058-059-192200-
   Central Minnesota

CITY           SKY/WX    TMP DP  RH WIND       PRES   REMARKS
ST CLOUD       SUNNY     72  44  36 W15       29.76F
SAUK CENTRE    FAIR      67  43  41 W17G23    29.79S
PAYNESVILLE    SUNNY     67  42  40 W15       29.79F
AITKIN         SUNNY     70  45  40 W3        29.72F
PINE RIVER     SUNNY     66  45  45 W12G18    29.78R
BRAINERD       SUNNY     65  43  44 W14       29.75S
STAPLES        SUNNY     64  41  42 W17       29.77S
LONG PRAIRIE   FAIR      64  43  45 W12G22    29.79S
LITTLE FALLS   SUNNY     68  41  37 W12G17    29.76S
LITCHFIELD     SUNNY     70  45  40 W12G18    29.80S
BUFFALO        SUNNY     68  43  39 W9        29.79S
MAPLE LAKE     SUNNY     69  47  44 W9        29.78F
$$
MNZ037-044-045-052-053-192200-
   East Central Minnesota

CITY           SKY/WX    TMP DP  RH WIND       PRES   REMARKS
PRINCETON      SUNNY     70  45  40 SW8       29.76F
MORA           SUNNY     64  45  48 SW7       29.76F
CAMBRIDGE      SUNNY     68  48  49 W9        29.74F
RUSH CITY      SUNNY     64  45  49 SW8       29.76S
MOOSE LAKE     SUNNY     63  41  45 W8        29.71F
HINCKLEY       FAIR      63  45  51 SW13      29.74F
CLOQUET        SUNNY     63  41  45 W13       29.71F
MCGREGOR       SUNNY     63  43  48 W7        29.73F
$$
MNZ071>073-080-081-089-090-097-098-192200-
   Southwest Minnesota

CITY           SKY/WX    TMP DP  RH WIND       PRES   REMARKS
MONTEVIDEO     SUNNY     73  43  33 N10       29.82F
GRANITE FALLS  SUNNY     73  41  31 W16       29.83S
CANBY          SUNNY     73  40  30 NW13G20   29.85S
MARSHALL       SUNNY     73  41  31 NW18G25   29.82S
REDWOOD FALLS  SUNNY     75  42  30 NW17G23   29.81S
OLIVIA         SUNNY     73  43  33 NW14      29.80F
PIPESTONE      SUNNY     73  39  29 NW12      29.87S
WINDOM         SUNNY     73  43  33 W13       29.84F
WORTHINGTON    SUNNY     72  45  37 W13G22    29.88S
JACKSON        SUNNY     72  41  33 W16       29.86F
TRACY          SUNNY     75  42  30 NW15      29.84S
SLAYTON        SUNNY     73  38  28 NW17      29.86F
$$
MNZ065>067-074>077-082>085-091>093-192200-
   South Central Minnesota

CITY           SKY/WX    TMP DP  RH WIND       PRES   REMARKS
MANKATO        SUNNY     70  43  37 W15       29.81F
NEW ULM        SUNNY     72  46  40 W13       29.80F
ST JAMES       SUNNY     73  41  31 SW12G18   29.83F
FAIRMONT       SUNNY     72  34  25 W14G21    29.85S
GLENCOE        SUNNY     72  46  40 W16       29.79F
FARIBAULT      SUNNY     68  45  42 SW10G18   29.82F
OWATONNA       SUNNY     68  43  40 SW14G20   29.83S
WASECA         SUNNY     68  39  34 W13G21    29.84F
ALBERT LEA     SUNNY     70  45  40 SW10G20   29.84F
$$
MNZ078>079-086>088-094>096-192200-
   Southeast Minnesota

CITY           SKY/WX    TMP DP  RH WIND       PRES   REMARKS
ROCHESTER      MOSUNNY   66  46  48 SW18G24   29.85S
RED WING       SUNNY     68  43  40 W10       29.79F
STANTON        SUNNY     68  44  41 SW13      29.79F
DODGE CENTER   MOSUNNY   66  46  48 W18G24    29.83S
WINONA         MOSUNNY   63  45  51 SW9       29.84F
AUSTIN         SUNNY     66  46  48 SW16G23   29.84F
PRESTON        MOSUNNY   61  45  54 SW12G23   29.86F
$$
ABBREVIATIONS USED IN REMARKS
   TC - TEMPERATURES IN CELSIUS
  WCI - WIND CHILL INDEX
   HX - HEAT INDEX
  VSB - VISIBILITY
$$



USA.gov is the U.S. government's official web portal to all federal, state and local government web resources and services.